Location: Cieszkowy
(50.3290°N, 20.5336°E)
Time: 23:28:54
(UTC+00:00)

NOSS 3-2 (A) - Pass Details

Date: 15 June 2024
Orbit: 705 x 1500 km, 63.4° (Epoch: 17 July)

Event Time Altitude Azimuth Distance (km) Brightness Sun altitude
Exits shadow 00:56:27 10° 239° (WSW) 2,362 5.0 -10.3°
Reaches altitude 10° 00:56:29 10° 239° (WSW) 2,352 5.0 -10.3°
Maximum altitude 01:01:49 62° 320° (NW) 992 3.7 -9.8°
Drops below altitude 10° 01:08:16 10° 42° (NE) 2,827 7.6 -9.2°
Sets 01:11:13 0° 45° (NE) 3,914 8.7 -9.0°
